Weather History for KGNV - April, 2013

Change the Weather History Date:

Tuesday, April 23, 2013

  Actual Average Record
Temperature  
Mean Temperature 66 °F 69 °F  
Max Temperature 80 °F 82 °F 92 °F (1964)
Min Temperature 51 °F 56 °F 41 °F (1993)
Degree Days  
Heating Degree Days 0 1  
Month to date heating degree days 24 38  
Since 1 July heating degree days 1036 1209  
Cooling Degree Days 1 5  
Month to date cooling degree days 118 82  
Year to date cooling degree days 236 168  
Growing Degree Days 16 (Base 50)    
Moisture  
Dew Point 54 °F    
Average Humidity 68    
Maximum Humidity 96    
Minimum Humidity 39    
Precipitation  
Precipitation 0.00 in 0.08 in 2.95 in (1983)
Month to date precipitation 3.11 2.14  
Year to date precipitation 6.06 12.98  
Snow  
Snow 0.00 in 0.00 in 0.00 in ()
Month to date snowfall 0.0 0.0  
Since 1 July snowfall 0.0 0.0  
Snow Depth 0.00 in    
Sea Level Pressure  
Sea Level Pressure 30.12 in    
Wind  
Wind Speed 6 mph (ENE)    
Max Wind Speed 15 mph    
Max Gust Speed 23 mph    
Visibility 10 miles    
Events      
T = Trace of Precipitation, MM = Missing Value Source: NWS Daily Summary

Daily Weather History Graph

Daily Weather History Graph

Search for Another Location

Airport or City:

Trip Planner

Search our weather history database for the weather conditions in past years. The results will help you decide how hot, cold, wet, or windy it might be!

Date:

Astronomy

Apr. 23, 2013 Rise Set
Actual Time 6:53 AM EDT 8:01 PM EDT
Civil Twilight 6:29 AM EDT 8:26 PM EDT
Nautical Twilight 5:59 AM EDT 8:55 PM EDT
Astronomical Twilight 5:29 AM EDT 9:25 PM EDT
Moon 6:02 PM EDT (4/23) 5:11 AM EDT (4/23)
Length of Visible Light 13h 56m
Length of Day
13h 07m
Waxing Gibbous, 94% of the Moon is Illuminated
Apr 23
Waxing Gibbous
Apr 25
Full
May 2
Last Quarter
May 9
New
May 18
First Quarter

Hourly Weather History & Observations

Time (EDT) Temp. Heat Index Dew Point Humidity Pressure Visibility Wind Dir Wind Speed Gust Speed Precip Events Conditions
12:53 AM 55.9 °F - 53.1 °F 90% 30.13 in 10.0 mi Calm Calm - N/A   Clear
1:53 AM 54.0 °F - 52.0 °F 93% 30.12 in 10.0 mi NNW 3.5 mph - N/A   Clear
2:53 AM 55.9 °F - 52.0 °F 87% 30.09 in 10.0 mi NNE 4.6 mph - N/A   Clear
3:53 AM 55.0 °F - 52.0 °F 89% 30.08 in 10.0 mi North 3.5 mph - N/A   Clear
4:53 AM 53.1 °F - 51.1 °F 93% 30.08 in 10.0 mi Calm Calm - N/A   Clear
5:53 AM 51.1 °F - 50.0 °F 96% 30.09 in 10.0 mi Calm Calm - N/A   Clear
6:53 AM 52.0 °F - 50.0 °F 93% 30.11 in 9.0 mi Calm Calm - N/A   Clear
7:53 AM 57.0 °F - 55.0 °F 93% 30.12 in 10.0 mi NNE 4.6 mph - N/A   Clear
8:53 AM 62.1 °F - 57.0 °F 84% 30.14 in 10.0 mi NE 10.4 mph - N/A   Clear
9:53 AM 68.0 °F - 57.0 °F 68% 30.16 in 10.0 mi NE 9.2 mph - N/A   Clear
10:53 AM 72.0 °F - 55.0 °F 55% 30.16 in 10.0 mi East 10.4 mph - N/A   Clear
11:53 AM 72.0 °F - 55.9 °F 57% 30.16 in 10.0 mi ENE 8.1 mph 23.0 mph N/A   Clear
12:53 PM 75.9 °F - 57.0 °F 52% 30.14 in 10.0 mi East 9.2 mph 16.1 mph N/A   Clear
1:53 PM 77.0 °F - 55.9 °F 48% 30.12 in 10.0 mi East 9.2 mph - N/A   Scattered Clouds
2:53 PM 79.0 °F - 55.0 °F 44% 30.11 in 10.0 mi NE 9.2 mph 16.1 mph N/A   Partly Cloudy
3:53 PM 80.1 °F 80.0 °F 54.0 °F 40% 30.09 in 10.0 mi ENE 10.4 mph 19.6 mph N/A   Clear
4:53 PM 79.0 °F - 53.1 °F 40% 30.09 in 10.0 mi East 10.4 mph 20.7 mph N/A   Partly Cloudy
5:53 PM 78.1 °F - 53.1 °F 42% 30.10 in 10.0 mi East 9.2 mph 19.6 mph N/A   Partly Cloudy
6:53 PM 75.0 °F - 52.0 °F 44% 30.11 in 10.0 mi ENE 8.1 mph - N/A   Clear
7:53 PM 69.1 °F - 54.0 °F 58% 30.11 in 10.0 mi East 8.1 mph - N/A   Clear
8:53 PM 64.9 °F - 54.0 °F 68% 30.13 in 10.0 mi East 6.9 mph - N/A   Clear
9:53 PM 62.1 °F - 55.0 °F 78% 30.15 in 10.0 mi East 6.9 mph - N/A   Clear
10:53 PM 59.0 °F - 54.0 °F 83% 30.15 in 10.0 mi East 5.8 mph - N/A   Clear
11:53 PM 57.0 °F - 54.0 °F 89% 30.15 in 10.0 mi Calm Calm - N/A   Clear